GW2345 Weather Reports


time (UTC)temp
C
wind
direction
speed
KPH
gust
KPH
rain 1hr
cm
rain 24hr
cm
rain mn
cm
humidity
%
barometer
mb
20260509185854 29 131 1.6 3.2 0.00 0.00 0.00 66 1012.8
20260509185350 29 110 0.0 1.6 0.00 0.00 0.00 62 1012.9
20260509184847 29 159 0.0 3.2 0.00 0.00 0.00 65 1013.0
20260509184344 28 120 0.0 3.2 0.00 0.00 0.00 64 1013.0
20260509183841 28 132 0.0 3.2 0.00 0.00 0.00 66 1012.9
20260509183336 28 139 0.0 4.8 0.00 0.00 0.00 67 1013.0
20260509182832 27 157 1.6 3.2 0.00 0.00 0.00 67 1013.0
20260509182330 27 150 0.0 1.6 0.00 0.00 0.00 70 1013.2
20260509181827 27 142 0.0 0.0 0.00 0.00 0.00 71 1013.3
20260509181324 27 142 0.0 0.0 0.00 0.00 0.00 69 1013.0
20260509180821 27 102 0.0 0.0 0.00 0.00 0.00 71 1013.4
20260509180317 28 102 0.0 0.0 0.00 0.00 0.00 70 1013.6
20260509175814 27 102 0.0 0.0 0.00 0.00 0.00 71 1013.4
20260509175310 28 117 0.0 0.0 0.00 0.00 0.00 74 1013.3
20260509174806 28 104 0.0 0.0 0.00 0.00 0.00 68 1013.3
20260509174302 29 129 0.0 3.2 0.00 0.00 0.00 68 1013.4
20260509173758 28 120 1.6 4.8 0.00 0.00 0.00 70 1013.6
20260509173254 28 128 3.2 4.8 0.00 0.00 0.00 71 1013.5
20260509172750 28 57 1.6 3.2 0.00 0.00 0.00 69 1013.5
20260509172247 28 144 1.6 4.8 0.00 0.00 0.00 68 1013.5
20260509171742 28 105 1.6 1.6 0.00 0.00 0.00 70 1013.6
20260509171239 28 149 1.6 3.2 0.00 0.00 0.00 69 1013.8
20260509170736 28 107 1.6 3.2 0.00 0.00 0.00 73 1013.7
20260509170232 27 124 1.6 3.2 0.00 0.00 0.00 73 1013.9
20260509165730 27 108 1.6 4.8 0.00 0.00 0.00 74 1013.8
20260509165225 27 118 1.6 3.2 0.00 0.00 0.00 74 1013.9
20260509164721 27 94 1.6 8.0 0.00 0.00 0.00 76 1013.8
20260509164217 27 104 1.6 4.8 0.00 0.00 0.00 76 1014.0
20260509163715 27 13 4.8 4.8 0.00 0.00 0.00 74 1013.9
20260509163212 27 125 1.6 3.2 0.00 0.00 0.00 77 1014.1
20260509162709 26 107 0.0 1.6 0.00 0.00 0.00 83 1014.2
20260509162204 26 114 0.0 1.6 0.00 0.00 0.00 81 1014.1
20260509161700 26 97 0.0 1.6 0.00 0.00 0.00 82 1014.0
20260509161156 25 120 1.6 1.6 0.00 0.00 0.00 82 1014.0
20260509160652 26 109 0.0 0.0 0.00 0.00 0.00 82 1014.0
20260509160147 26 109 0.0 1.6 0.00 0.00 0.00 80 1014.1
20260509155644 27 105 1.6 4.8 0.00 0.00 0.00 80 1013.7
20260509155140 26 125 1.6 4.8 0.00 0.00 0.00 80 1013.8
20260509154636 25 133 1.6 1.6 0.00 0.00 0.00 83 1013.7
20260509154133 26 69 1.6 8.0 0.00 0.00 0.00 84 1013.9
20260509153630 25 110 1.6 1.6 0.00 0.00 0.00 85 1013.7
20260509153127 26 72 6.4 9.7 0.00 0.00 0.00 81 1013.6
20260509152622 25 112 1.6 1.6 0.00 0.00 0.00 82 1013.5
20260509152120 26 116 1.6 1.6 0.00 0.00 0.00 81 1013.5
20260509151616 26 113 3.2 4.8 0.00 0.00 0.00 79 1013.4
20260509151114 26 74 1.6 3.2 0.00 0.00 0.00 83 1013.5
20260509150611 26 335 6.4 8.0 0.00 0.00 0.00 84 1013.4
20260509150110 25 107 0.0 0.0 0.00 0.00 0.00 85 1013.6
20260509145605 25 103 0.0 1.6 0.00 0.00 0.00 86 1013.4
20260509145101 26 288 4.8 8.0 0.00 0.00 0.00 84 1013.2
20260509144558 26 111 1.6 8.0 0.00 0.00 0.00 85 1013.3
20260509144055 25 68 1.6 4.8 0.00 0.00 0.00 85 1013.1
20260509143552 25 134 1.6 4.8 0.00 0.00 0.00 86 1012.8
20260509143049 25 23 4.8 8.0 0.00 0.00 0.00 88 1013.2
20260509142545 25 0 4.8 8.0 0.00 0.00 0.00 89 1012.9
20260509142041 25 326 4.8 8.0 0.00 0.00 0.00 89 1013.1
20260509141537 25 104 3.2 4.8 0.00 0.00 0.00 90 1013.0
20260509141034 24 57 1.6 8.0 0.00 0.00 0.00 91 1012.0
20260509140531 23 210 8.0 16.1 0.00 0.00 0.00 92 1012.0
20260509140029 23 244 4.8 9.7 0.00 0.00 0.00 93 1012.1
20260509135525 22 256 6.4 11.3 0.00 0.00 0.00 96 1012.0
20260509135023 22 171 1.6 4.8 0.00 0.00 0.00 97 1012.3
20260509134520 22 226 6.4 12.9 0.00 0.00 0.00 97 1012.3
20260509134018 22 153 3.2 9.7 0.00 0.00 0.00 98 1012.5
20260509133514 22 167 1.6 4.8 0.00 0.00 0.00 99 1012.1
20260509133012 21 141 4.8 4.8 0.00 0.00 0.00 99 1012.2
20260509132510 21 167 3.2 9.7 0.00 0.00 0.00 99 1012.0
20260509132008 21 179 4.8 9.7 0.00 0.00 0.00 99 1012.2
20260509131504 21 143 0.0 0.0 0.00 0.00 0.00 99 1012.2
20260509131001 21 143 0.0 0.0 0.00 0.00 0.00 99 1012.0
20260509130456 21 133 0.0 0.0 0.00 0.00 0.00 99 1012.0
20260509125954 21 110 0.0 1.6 0.00 0.00 0.00 99 1011.8
20260509125450 21 132 0.0 1.6 0.00 0.00 0.00 99 1011.8
20260509124946 21 132 0.0 0.0 0.00 0.00 0.00 99 1012.0
20260509124443 21 94 0.0 1.6 0.00 0.00 0.00 99 1012.1
20260509123940 20 152 0.0 4.8 0.00 0.00 0.00 99 1011.6
20260509123438 20 131 0.0 3.2 0.00 0.00 0.00 99 1012.0
20260509122933 20 136 0.0 0.0 0.00 0.00 0.00 99 1012.3
20260509122431 20 148 0.0 0.0 0.00 0.00 0.00 99 1012.5
20260509121927 21 72 0.0 1.6 0.00 0.00 0.00 99 1012.8
20260509121424 21 96 0.0 0.0 0.00 0.00 0.00 99 1012.4
20260509120922 21 125 0.0 0.0 0.00 0.00 0.00 99 1012.7
20260509120420 21 119 0.0 0.0 0.00 0.00 0.00 99 1012.6
20260509115918 20 119 0.0 3.2 0.00 0.00 0.00 99 1012.4
20260509115415 20 129 0.0 0.0 0.00 0.00 0.00 99 1012.9
20260509114913 20 124 0.0 0.0 0.00 0.00 0.00 99 1013.0
20260509114411 20 117 0.0 0.0 0.00 0.00 0.00 99 1013.0
20260509113910 20 139 0.0 0.0 0.00 0.00 0.00 99 1013.0
20260509113407 20 129 0.0 3.2 0.00 0.00 0.00 99 1012.9
20260509112903 20 119 0.0 0.0 0.00 0.00 0.00 99 1013.3
20260509112400 21 79 0.0 0.0 0.00 0.00 0.00 99 1013.5
20260509111858 21 104 0.0 8.0 0.00 0.00 0.00 99 1013.7
20260509111354 21 89 0.0 3.2 0.00 0.00 0.00 99 1013.7
20260509110852 21 78 1.6 1.6 0.00 0.00 0.00 99 1013.6
20260509110348 21 125 0.0 0.0 0.00 0.00 0.00 99 1013.9
20260509105847 21 109 0.0 3.2 0.00 0.00 0.00 99 1013.7
20260509105344 21 76 1.6 3.2 0.00 0.00 0.00 99 1014.0
20260509104841 21 69 1.6 3.2 0.00 0.00 0.00 99 1013.9
20260509104337 21 126 0.0 0.0 0.00 0.00 0.00 99 1014.2
20260509103835 21 121 0.0 0.0 0.00 0.00 0.00 99 1014.1
20260509103332 21 132 0.0 0.0 0.00 0.00 0.00 99 1014.0
20260509102831 21 131 0.0 0.0 0.00 0.00 0.00 99 1014.0
20260509102328 21 130 0.0 0.0 0.00 0.00 0.00 99 1014.0
20260509101824 21 107 0.0 0.0 0.00 0.00 0.00 99 1014.1
20260509101320 21 107 0.0 0.0 0.00 0.00 0.00 99 1014.0
20260509100818 21 107 0.0 0.0 0.00 0.00 0.00 99 1014.0
20260509100315 21 106 0.0 0.0 0.00 0.00 0.00 99 1013.9
20260509095811 21 107 0.0 0.0 0.00 0.00 0.00 99 1013.7
20260509095309 21 116 0.0 0.0 0.00 0.00 0.00 99 1013.2
20260509094806 21 116 0.0 0.0 0.00 0.00 0.00 99 1013.4
20260509094302 21 114 0.0 0.0 0.00 0.00 0.00 99 1013.3
20260509093800 21 114 0.0 0.0 0.00 0.00 0.00 99 1013.3
20260509093257 21 116 0.0 0.0 0.00 0.00 0.00 99 1013.3
20260509092755 21 111 0.0 0.0 0.00 0.00 0.00 99 1013.2
20260509092253 21 112 0.0 0.0 0.00 0.00 0.00 99 1013.3
20260509091751 21 115 0.0 0.0 0.00 0.00 0.00 99 1013.3
20260509091247 21 101 0.0 0.0 0.00 0.00 0.00 99 1013.2
20260509090745 21 103 0.0 0.0 0.00 0.00 0.00 99 1013.2
20260509090242 21 109 0.0 0.0 0.00 0.00 0.00 99 1012.9
20260509085739 21 133 0.0 0.0 0.00 0.00 0.00 99 1012.9
20260509085237 21 122 0.0 1.6 0.00 0.00 0.00 99 1012.8
20260509084733 21 143 1.6 1.6 0.00 0.00 0.00 99 1012.6
20260509084230 21 129 0.0 0.0 0.00 0.00 0.00 99 1012.8
20260509083728 21 130 0.0 0.0 0.00 0.00 0.00 99 1012.8
20260509083224 21 130 0.0 0.0 0.00 0.00 0.00 99 1013.0
20260509082721 21 125 0.0 1.6 0.00 0.00 0.00 99 1013.1
20260509082218 21 128 0.0 0.0 0.00 0.00 0.00 98 1013.1
20260509081714 21 124 0.0 0.0 0.00 0.00 0.00 98 1012.9
20260509081212 21 121 0.0 0.0 0.00 0.00 0.00 98 1012.8
20260509080710 21 122 0.0 0.0 0.00 0.00 0.00 98 1012.7
20260509080208 21 123 0.0 1.6 0.00 0.00 0.00 98 1013.1
20260509075706 21 132 0.0 0.0 0.00 0.00 0.00 98 1013.3
20260509075203 21 124 0.0 1.6 0.00 0.00 0.00 98 1013.2
20260509074700 21 137 0.0 1.6 0.00 0.00 0.00 98 1013.1
20260509074156 21 127 0.0 1.6 0.00 0.00 0.00 98 1013.0
20260509073653 21 121 0.0 1.6 0.00 0.00 0.00 98 1013.2
20260509073149 22 115 0.0 3.2 0.00 0.00 0.00 97 1013.4
20260509072646 22 125 0.0 3.2 0.00 0.00 0.00 97 1013.7
20260509072143 22 125 0.0 0.0 0.00 0.00 0.00 98 1013.7
20260509071639 22 128 0.0 0.0 0.00 0.00 0.00 97 1013.7
20260509071137 22 126 0.0 0.0 0.00 0.00 0.00 97 1013.5
20260509070634 22 108 0.0 0.0 0.00 0.00 0.00 97 1013.2
20260509070130 22 108 0.0 0.0 0.00 0.00 0.00 97 1013.4
20260509065626 22 108 0.0 0.0 0.00 0.00 0.00 97 1013.8
20260509065123 22 107 0.0 0.0 0.00 0.00 0.00 97 1013.4
20260509064620 22 122 0.0 0.0 0.00 0.00 0.00 97 1013.6
20260509064118 22 122 0.0 0.0 0.00 0.00 0.00 97 1013.5
20260509063614 22 127 0.0 0.0 0.00 0.00 0.00 97 1013.6
20260509063111 22 123 0.0 0.0 0.00 0.00 0.00 97 1013.6
20260509062608 22 125 0.0 0.0 0.00 0.00 0.00 97 1013.4
20260509062105 22 143 0.0 1.6 0.00 0.00 0.00 97 1013.3
20260509061602 22 138 0.0 3.2 0.00 0.00 0.00 97 1013.4
20260509061059 21 150 0.0 0.0 0.00 0.00 0.00 97 1013.5
20260509060557 21 132 0.0 3.2 0.00 0.00 0.00 97 1013.4
20260509060052 21 186 1.6 4.8 0.00 0.00 0.00 97 1013.5
20260509055548 21 165 0.0 3.2 0.00 0.00 0.00 97 1013.3
20260509055044 21 142 0.0 3.2 0.00 0.00 0.00 97 1012.9
20260509054541 21 116 0.0 0.0 0.00 0.00 0.00 97 1012.9
20260509054039 21 124 0.0 1.6 0.00 0.00 0.00 97 1012.5
20260509053537 21 149 0.0 0.0 0.00 0.00 0.00 97 1012.7
20260509053034 21 126 0.0 3.2 0.00 0.00 0.00 97 1012.4
20260509052531 21 124 0.0 4.8 0.00 0.00 0.00 97 1012.3
20260509052029 21 132 0.0 1.6 0.00 0.00 0.00 97 1012.4
20260509051527 21 135 0.0 3.2 0.00 0.00 0.00 97 1012.1
20260509051024 21 118 0.0 3.2 0.00 0.00 0.00 97 1012.1
20260509050521 21 138 1.6 4.8 0.00 0.00 0.00 97 1012.3
20260509050017 21 145 3.2 4.8 0.00 0.00 0.00 97 1012.3
20260509045509 21 122 0.0 1.6 0.00 0.00 0.00 97 1012.4
20260509045006 21 115 0.0 1.6 0.00 0.00 0.00 97 1012.4
20260509044504 21 119 0.0 1.6 0.00 0.00 0.00 97 1012.3
20260509044001 21 127 0.0 3.2 0.00 0.00 0.00 97 1012.5
20260509043456 21 139 1.6 3.2 0.00 0.00 0.00 97 1012.3
20260509042951 21 124 0.0 3.2 0.00 0.00 0.00 97 1012.4
20260509042449 21 129 0.0 3.2 0.00 0.00 0.00 96 1012.4
20260509041945 21 135 1.6 3.2 0.00 0.00 0.00 96 1012.3
20260509041442 21 126 0.0 1.6 0.00 0.00 0.00 96 1012.5
20260509040940 21 211 1.6 4.8 0.00 0.00 0.00 96 1012.5
20260509040438 21 178 3.2 8.0 0.00 0.00 0.00 96 1012.3
20260509035934 21 169 3.2 4.8 0.00 0.00 0.00 96 1012.5
20260509035431 21 120 1.6 4.8 0.00 0.00 0.00 96 1012.2
20260509034927 21 199 4.8 4.8 0.00 0.00 0.00 96 1012.2
20260509034426 21 119 3.2 4.8 0.00 0.00 0.00 95 1012.1
20260509033922 21 153 3.2 4.8 0.00 0.00 0.00 95 1012.1
20260509033419 21 159 4.8 4.8 0.00 0.00 0.00 95 1012.0
20260509032916 21 93 0.0 4.8 0.00 0.00 0.00 95 1012.1
20260509032413 22 119 1.6 8.0 0.00 0.00 0.00 95 1012.1
20260509031911 22 140 4.8 9.7 0.00 0.00 0.00 95 1012.2
20260509031408 22 102 4.8 9.7 0.00 0.00 0.00 95 1011.9
20260509030906 22 119 1.6 8.0 0.00 0.00 0.00 94 1012.0
20260509030404 22 131 3.2 11.3 0.00 0.00 0.00 94 1011.7
20260509025901 22 154 4.8 8.0 0.00 0.00 0.00 94 1011.6
20260509025356 22 116 0.0 9.7 0.00 0.00 0.00 94 1011.6
20260509024851 22 162 4.8 9.7 0.00 0.00 0.00 94 1011.4
20260509024348 22 156 1.6 11.3 0.00 0.00 0.00 94 1011.6
20260509023845 22 188 6.4 8.0 0.00 0.00 0.00 95 1011.4
20260509023342 22 116 0.0 8.0 0.00 0.00 0.00 95 1011.4
20260509022838 21 164 1.6 1.6 0.00 0.00 0.00 95 1011.6
20260509022336 21 130 0.0 3.2 0.00 0.00 0.00 94 1011.1
20260509021833 21 118 0.0 1.6 0.00 0.00 0.00 94 1011.4
20260509021330 22 126 0.0 1.6 0.00 0.00 0.00 94 1011.2
20260509020827 22 128 0.0 0.0 0.00 0.00 0.00 93 1011.2
20260509020325 22 120 0.0 1.6 0.00 0.00 0.00 93 1011.4
20260509015823 22 122 0.0 1.6 0.00 0.00 0.00 93 1011.2
20260509015321 22 118 0.0 3.2 0.00 0.00 0.00 93 1011.2
20260509014817 22 125 0.0 1.6 0.00 0.00 0.00 93 1011.3
20260509014314 22 135 1.6 3.2 0.00 0.00 0.00 93 1011.3
20260509013810 22 114 0.0 1.6 0.00 0.00 0.00 93 1011.1
20260509013306 22 116 0.0 3.2 0.00 0.00 0.00 93 1011.2
20260509012757 22 144 0.0 1.6 0.00 0.00 0.00 92 1011.0
20260509012254 22 120 1.6 1.6 0.00 0.00 0.00 92 1011.1
20260509011751 22 134 0.0 3.2 0.00 0.00 0.00 92 1011.2
20260509011249 22 120 0.0 4.8 0.00 0.00 0.00 92 1011.1
20260509010746 22 124 1.6 3.2 0.00 0.00 0.00 91 1011.2
20260509010243 22 127 0.0 4.8 0.00 0.00 0.00 91 1011.1
20260509005740 22 129 0.0 3.2 0.00 0.00 0.00 91 1011.1
20260509005237 22 127 1.6 4.8 0.00 0.00 0.00 91 1011.1
20260509004732 22 129 3.2 8.0 0.00 0.00 0.00 91 1011.0
20260509004229 22 123 1.6 4.8 0.00 0.00 0.00 91 1010.9
20260509003727 22 123 4.8 8.0 0.00 0.00 0.00 91 1011.1
20260509003225 22 126 1.6 3.2 0.00 0.00 0.00 91 1011.0
20260509002722 22 135 1.6 1.6 0.00 0.00 0.00 91 1011.2
20260509002219 22 142 1.6 3.2 0.00 0.00 0.00 90 1011.4
20260509001717 22 116 0.0 4.8 0.00 0.00 0.00 90 1011.3
20260509001213 22 117 0.0 1.6 0.00 0.00 0.00 90 1011.4
20260509000711 22 109 3.2 3.2 0.00 0.00 0.00 90 1011.2
20260509000208 22 124 0.0 3.2 0.00 0.00 0.00 90 1011.2
20260508235705 22 118 3.2 3.2 0.00 0.00 0.00 90 1011.3
20260508235201 22 126 0.0 1.6 0.00 0.00 0.00 90 1011.7
20260508234658 22 156 1.6 3.2 0.00 0.00 0.00 90 1011.4
20260508234154 22 152 0.0 3.2 0.00 0.00 0.00 90 1011.5
20260508233649 22 142 1.6 3.2 0.00 0.00 0.00 89 1011.6
20260508233146 22 94 1.6 1.6 0.00 0.00 0.00 89 1011.5
20260508232643 22 105 1.6 3.2 0.00 0.00 0.00 89 1011.4
20260508232139 23 82 3.2 3.2 0.00 0.00 0.00 88 1011.4
20260508231638 23 121 0.0 1.6 0.00 0.00 0.00 89 1011.5
20260508231134 23 104 3.2 3.2 0.00 0.00 0.00 88 1011.4
20260508230630 23 124 0.0 3.2 0.00 0.00 0.00 87 1011.4
20260508230127 23 128 0.0 4.8 0.00 0.00 0.00 86 1011.5
20260508225625 23 111 1.6 4.8 0.00 0.00 0.00 87 1011.6
20260508225121 23 96 0.0 3.2 0.00 0.00 0.00 86 1011.5
20260508224619 23 120 0.0 1.6 0.00 0.00 0.00 86 1011.6
20260508224116 23 127 1.6 4.8 0.00 0.00 0.00 86 1011.6
20260508223614 23 112 1.6 3.2 0.00 0.00 0.00 86 1011.6
20260508223111 23 101 4.8 4.8 0.00 0.00 0.00 86 1011.6
20260508222608 23 113 1.6 8.0 0.00 0.00 0.00 86 1011.7
20260508222105 23 150 1.6 4.8 0.00 0.00 0.00 85 1011.6
20260508221601 23 128 1.6 3.2 0.00 0.00 0.00 85 1011.8
20260508221057 23 77 4.8 4.8 0.00 0.00 0.00 84 1011.7
20260508220554 23 107 0.0 1.6 0.00 0.00 0.00 85 1011.8
20260508220050 23 133 0.0 4.8 0.00 0.00 0.00 84 1011.8
20260508215547 24 103 0.0 4.8 0.00 0.00 0.00 82 1011.8
20260508215044 23 153 1.6 3.2 0.00 0.00 0.00 82 1011.9
20260508214541 22 128 1.6 4.8 0.00 0.00 0.00 84 1011.8
20260508214037 23 123 1.6 4.8 0.00 0.00 0.00 83 1011.8
20260508213535 23 145 4.8 9.7 0.00 0.00 0.00 82 1011.8
20260508213030 23 116 4.8 9.7 0.00 0.00 0.00 82 1011.9
20260508212528 22 165 1.6 4.8 0.00 0.00 0.00 85 1011.9
20260508212024 22 135 1.6 3.2 0.00 0.00 0.00 85 1012.1
20260508211520 23 115 1.6 4.8 0.00 0.00 0.00 84 1012.4
20260508211016 22 167 4.8 8.0 0.00 0.00 0.00 83 1012.2
20260508210513 22 108 3.2 8.0 0.00 0.00 0.00 84 1012.4
20260508210010 23 115 0.0 4.8 0.00 0.00 0.00 84 1012.5
20260508205507 22 68 3.2 3.2 0.00 0.00 0.00 85 1012.6
20260508205003 22 132 1.6 4.8 0.00 0.00 0.00 85 1012.6
20260508204501 21 105 0.0 4.8 0.00 0.00 0.00 86 1012.7
20260508203955 22 125 4.8 8.0 0.00 0.00 0.00 84 1012.8
20260508203452 21 60 3.2 8.0 0.00 0.00 0.00 87 1012.8
20260508202948 21 146 1.6 8.0 0.00 0.00 0.00 87 1012.9
20260508202445 22 127 1.6 3.2 0.00 0.00 0.00 86 1013.1
20260508201942 21 60 1.6 4.8 0.00 0.00 0.00 86 1013.3
20260508201439 21 75 1.6 4.8 0.00 0.00 0.00 86 1013.1
20260508200935 21 127 1.6 4.8 0.00 0.00 0.00 86 1013.3
20260508200433 21 81 1.6 8.0 0.00 0.00 0.00 86 1013.4
20260508195927 21 120 4.8 4.8 0.00 0.00 0.00 87 1013.4
20260508195425 21 114 1.6 4.8 0.00 0.00 0.00 87 1013.3
20260508194921 21 112 4.8 11.3 0.00 0.00 0.00 86 1013.3
20260508194418 21 110 3.2 8.0 0.00 0.00 0.00 86 1013.5
20260508193915 21 70 6.4 9.7 0.00 0.00 0.00 85 1013.6
20260508193412 21 88 4.8 4.8 0.00 0.00 0.00 85 1013.8
20260508192908 21 158 1.6 4.8 0.00 0.00 0.00 87 1013.7
20260508192405 21 119 4.8 8.0 0.00 0.00 0.00 86 1013.6
20260508191902 20 122 0.0 3.2 0.00 0.00 0.00 88 1013.8
20260508191400 21 90 4.8 4.8 0.00 0.00 0.00 87 1013.8
20260508190856 20 157 1.6 3.2 0.00 0.00 0.00 87 1013.8
20260508190353 20 121 1.6 3.2 0.00 0.00 0.00 88 1013.9